SCP
0 0 0 0 0 0 0 0 0 0 0 0 0 0 0 0 0 0 0 0 0 0 0 0 0 0 0 0 0 0 0 0 0 0 0 0 0 0 0 0 0 0 0
0 0 0 0 0 0 0 0 0 0 0 0 0 0 0 0 0 0 0 0 0 0 0 0 0 0 0 0 0 0 0 0 0 0 0 0 0 0 0 0 0 0 0
0 0 0 0 0 0 0 0 0 0 0 0 0 0 0 0 0 0 0 0 0 0 0 0 0 0 0 0 0 0 0 0 0 0 0 0 0 0 0 0 0 0 0
0 0 0 0 0 0 0 0 0 0 0 0 0 0 0 0 0 0 0 0 0 0 0 0 0 0 0 0 0 0 0 0 0 0 0 0 0 0 0 0 0 0 0
0 0 0 0 0 0 0 0 0 0 0 0 0 0 0 0 0 0 0 0 0 0 0 0 0 0 0 0 0 0 0 0 0 0 0 0 0 0 0 0 0 0 0
0 0 0 0 0 0 0 0 0 0 0 0 0 0 0 0 0 0 0 0 0 0 0 0 0 0 0 0 0 0 0 0 0 0 0 0 0 0 0 0 0 0 0
0 0 0 0 0 0 0 0 0 0 0 0 0 0 0 0 0 0 0 0 0 0 0 0 0 0 0 0 0 0 0 0 0 0 0 0 0 0 0 0 0 0 0
0 0 0 0 0 0 0 0 0 0 0 0 0 0 0 0 0 0 0 0 0 0 0 0 0 0 0 0 0 0 0 0 0 0 0 0 0 0 0 0 0 0 0
0 0 0 0 0 0 0 0 0 0 0 0 0 0 0 0 0 0 0 0 0 0 0 0 0 0 0 0 0 0 0 0 0 0 0 0 0 0 0 0 0 0 0
0 0 0 0 0 0 0 0 0 0 0 0 0 0 0 0 0 0 0 0 0 0 0 0 0 0 0 0 0 0 0 0 0 0 0 0 0 0 0 0 0 0 0
0 0 0 0 0 0 0 0 0 0 0 0 0 0 0 0 0 0 0 0 0 0 0 0 0 0 0 0 0 0 0 0 0 0 0 0 0 0 0 0 0 0 0
0 0 0 0 0 0 0 0 0 0 0 0 0 0 0 0 0 0 0 0 0 0 0 0 0 0 0 0 0 0 0 0 0 0 0 0 0 0 0 0 0 0 0
0 0 0 0 0 0 0 0 0 0 0 0 0 0 0 0 0 0 0 0 0 0 0 0 0 0 0 0 0 0 0 0 0 0 0 0 0 0 0 0 0 0 0
0 0 0 0 0 0 0 0 0 0 0 0 0 0 0 0 0 0 0 0 0 0 0 0 0 0 0 0 0 0 0 0 0 0 0 0 0 0 0 0 0 0 0
0 0 0 0 0 0 0 0 0 0 0 0 0 0 0 0 0 0 0 0 0 0 0 0 0 0 0 0 0 0 0 0 0 0 0 0 0 0 0 0 0 0 0
0 0 0 0 0 0 0 0 0 0 0 0 0 0 0 0 0 0 0 0 0 0 0 0 0 0 0 0 0 0 0 0 0 0 0 0 0 0 0 0 0 0 0
0 0 0 0 0 0 0 0 0 0 0 0 0 0 0 0 0 0 0 0 0 0 0 0 0 0 0 0 0 0 0 0 0 0 0 0 0 0 0 0 0 0 0
0 0 0 0 0 0 0 0 0 0 0 0 0 0 0 0 0 0 0 0 0 0 0 0 0 0 0 0 0 0 0 0 0 0 0 0 0 0 0 0 0 0 0
0 0 0 0 0 0 0 0 0 0 0 0 0 0 0 0 0 0 0 0 0 0 0 0 0 0 0 0 0 0 0 0 0 0 0 0 0 0 0 0 0 0 0
0 0 0 0 0 0 0 0 0 0 0 0 0 0 0 0 0 0 0 0 0 0 0 0 0 0 0 0 0 0 0 0 0 0 0 0 0 0 0 0 0 0 0
0 0 0 0 0 0 0 0 0 0 0 0 0 0 0 0 0 0 0 0 0 0 0 0 0 0 0 0 0 0 0 0 0 0 0 0 0 0 0 0 0 0 0
0 0 0 0 0 0 0 0 0 0 0 0 0 0 0 0 0 0 0 0 0 0 0 0 0 0 0 0 0 0 0 0 0 0 0 0 0 0 0 0 0 0 0
0 0 0 0 0 0 0 0 0 0 0 0 0 0 0 0 0 0 0 0 0 0 0 0 0 0 0 0 0 0 0 0 0 0 0 0 0 0 0 0 0 0 0
0 0 0 0 0 0 0 0 0 0 0 0 0 0 0 0 0 0 0 0 0 0 0 0 0 0 0 0 0 0 0 0 0 0 0 0 0 0 0 0 0 0 0
0 0 0 0 0 0 0 0 0 0 0 0 0 0 0 0 0 0 0 0 0 0 0 0 0 0 0 0 0 0 0 0 0 0 0 0 0 0 0 0 0 0 0
0 0 0 0 0 0 0 0 0 0 0 0 0 0 0 0 0 0 0 0 0 0 0 0 0 0 0 0 0 0 0 0 0 0 0 0 0 0 0 0 0 0 0
Wind_Speed_500mb
13 11 9 7 5 5 4 4 4 4 6 6 8 9 11 13 14 18 18 18 16 17 20 20 22 23 27 23 21 30 36 39 42 44 45 46 46 47 48 48 47 50 51
14 13 11 8 7 7 7 7 4 2 3 4 6 9 11 13 14 17 16 16 16 18 20 20 20 20 21 28 31 34 38 42 43 43 45 45 45 45 48 52 52 54 54
16 15 14 11 9 9 9 9 8 6 3 2 8 11 13 14 13 7 12 15 16 15 15 17 20 22 28 29 32 35 39 42 43 43 42 45 49 51 53 54 54 55 57
22 20 19 16 14 14 13 13 9 4 3 4 4 7 15 19 14 6 6 9 18 15 17 19 20 23 25 29 31 37 41 42 42 44 48 52 53 54 55 56 57 59 60
27 24 23 21 19 19 18 13 8 7 6 6 9 16 14 17 9 8 10 6 4 11 16 18 19 19 23 25 32 36 38 40 44 49 52 53 52 53 53 55 57 60 63
33 30 23 22 25 26 23 18 15 11 8 9 13 16 16 13 10 10 13 5 7 11 16 17 18 17 19 25 30 31 35 41 46 51 51 50 48 49 52 55 60 61 61
37 31 22 22 22 25 26 21 22 17 15 14 11 9 14 15 9 10 15 13 7 13 14 12 14 15 19 24 27 32 39 45 46 48 48 50 49 49 52 55 56 56 60
40 35 30 30 29 24 30 30 23 21 23 20 17 14 11 12 12 15 19 16 15 16 14 11 13 15 20 26 31 36 40 43 44 45 46 48 49 49 52 53 53 59 60
46 41 38 36 34 35 32 30 29 32 30 27 24 20 14 17 24 21 24 21 18 20 15 11 11 14 23 27 31 35 41 42 42 43 46 47 50 51 50 50 55 56 61
51 47 43 45 43 44 45 38 42 40 39 37 36 30 29 28 24 19 25 25 23 22 20 15 13 17 24 27 31 36 37 39 41 43 45 48 51 52 47 51 52 57 54
54 53 47 42 48 47 47 47 50 46 43 40 44 38 38 39 41 33 26 27 26 24 20 16 13 15 21 24 28 33 35 38 41 43 46 48 51 53 50 47 51 50 56
61 61 56 53 49 43 45 48 48 48 45 47 47 46 42 43 43 46 42 30 28 26 22 19 13 14 20 25 28 31 30 35 38 38 43 46 49 52 49 46 46 47 51
66 68 64 61 56 53 49 44 47 50 55 57 52 51 47 50 43 40 41 40 31 30 26 20 14 13 16 19 23 26 25 30 33 35 40 45 47 50 47 41 40 45 48
76 68 67 67 67 62 54 56 50 49 53 55 53 53 52 52 47 43 41 38 32 31 29 26 15 13 15 16 18 20 21 26 27 31 36 40 43 45 44 37 39 42 48
82 74 70 73 77 73 69 67 62 56 52 53 56 54 53 53 50 46 43 38 36 28 32 28 21 14 15 15 16 15 16 20 21 27 31 35 40 42 43 43 38 43 45
80 77 73 71 77 82 78 75 69 66 61 54 55 55 56 54 51 48 43 38 33 30 25 27 24 18 14 14 14 14 15 16 22 23 27 32 36 40 43 45 47 49 46
77 80 80 73 71 84 86 85 74 74 63 57 57 56 57 56 53 48 41 36 32 30 27 27 23 16 14 14 14 15 16 17 20 20 24 30 34 37 40 44 47 47 48
80 80 80 79 69 73 88 89 79 80 63 64 60 60 60 59 55 47 39 34 32 29 25 23 18 11 14 13 14 14 16 17 17 19 21 26 31 35 39 42 46 47 49
82 79 82 80 73 72 83 89 84 74 66 67 60 66 63 61 55 46 42 37 33 31 24 19 13 12 15 14 14 14 16 17 19 18 19 25 28 33 37 40 44 47 51
70 75 77 76 77 76 74 93 76 75 72 66 63 68 64 58 51 46 41 39 36 31 23 19 12 17 19 17 16 15 15 18 20 20 19 24 29 31 35 39 43 47 50
66 69 71 76 76 77 76 93 81 76 78 64 66 70 63 54 48 43 40 40 36 30 24 21 19 21 24 23 21 20 20 19 20 19 17 21 25 29 33 34 38 46 47
65 69 73 76 75 77 76 79 82 81 73 64 69 70 62 56 50 47 44 42 36 29 26 21 25 26 28 25 26 25 25 26 21 24 26 21 27 28 33 35 39 43 42
59 63 66 65 66 72 71 84 80 84 72 67 66 63 61 57 52 50 50 45 37 30 21 26 33 32 33 28 26 27 28 29 29 27 35 29 27 26 31 37 41 37 44
50 50 51 54 62 64 73 73 83 74 70 62 65 62 58 55 56 56 54 48 41 31 23 30 37 40 36 34 29 30 29 29 32 29 31 34 32 29 30 36 34 31 42
42 40 45 48 58 62 73 75 77 73 63 61 63 62 58 58 56 58 55 46 40 31 28 34 43 48 43 35 33 33 27 32 35 32 30 33 31 43 40 30 23 38 41
40 42 44 47 55 66 70 73 73 67 65 69 69 68 66 61 59 58 55 49 42 31 35 35 49 51 45 37 36 37 33 35 34 36 21 29 37 37 27 22 32 41 44
Wind_Direction_500mb
170 170 158 163 136 150 155 148 136 92 82 79 57 29 11 8 4 345 350 3 13 13 11 12 19 31 52 33 14 0 359 356 357 357 355 353 351 348 347 348 352 351 353
190 192 188 188 191 204 200 199 193 166 106 53 20 1 349 350 352 338 342 348 359 7 17 21 29 41 13 4 3 1 359 358 355 353 352 350 350 352 354 357 1 1 359
213 214 213 218 220 214 203 184 164 151 135 357 355 356 338 340 332 339 323 331 345 360 16 10 359 352 357 357 357 1 360 354 352 352 353 356 360 3 4 5 4 1 359
228 230 231 230 230 214 204 190 175 189 205 303 316 330 310 312 315 292 292 310 321 358 2 360 354 353 352 354 0 359 353 354 355 358 1 3 4 6 4 5 6 1 360
235 238 242 241 236 225 218 206 216 225 257 269 290 329 291 305 283 302 292 290 295 340 348 350 354 351 353 1 359 355 353 356 0 3 5 6 8 11 12 11 9 5 2
238 240 245 257 245 231 215 221 234 246 267 288 290 301 291 307 272 279 280 274 320 345 346 345 346 350 358 358 356 354 359 3 6 9 9 13 16 16 16 15 13 10 11
236 237 248 261 245 237 221 233 235 252 255 261 275 275 286 299 234 242 262 284 297 328 346 339 338 348 352 356 356 4 8 10 13 13 13 12 14 18 19 19 15 18 12
242 241 235 249 245 241 236 239 246 253 259 255 261 265 245 201 219 223 268 259 292 318 327 324 327 339 352 1 6 9 11 13 14 13 14 14 16 20 19 17 16 11 9
242 242 241 242 245 241 242 252 254 254 258 255 253 249 234 225 218 233 256 257 281 304 306 301 313 335 354 3 5 8 10 12 14 15 16 15 14 18 19 16 12 12 7
241 239 251 245 241 240 242 251 251 250 252 255 255 260 251 241 198 188 235 254 266 283 293 309 329 344 351 360 4 6 8 12 12 15 17 16 14 15 18 13 12 5 11
237 239 242 246 241 240 249 252 252 249 248 257 259 260 254 242 239 229 216 223 244 266 285 293 311 329 344 358 0 2 8 9 10 15 18 16 14 11 11 12 7 7 359
237 237 238 240 239 243 250 251 254 254 255 261 257 263 258 249 240 228 225 224 238 254 269 278 295 323 343 350 354 359 3 4 10 15 17 14 11 7 4 7 5 8 357
239 236 238 238 233 241 246 248 256 258 257 261 256 262 256 254 250 235 226 223 220 232 251 257 270 304 327 337 340 349 357 2 11 12 14 10 8 5 2 3 5 4 358
252 248 243 242 239 240 242 241 252 256 257 256 255 262 254 250 248 238 232 230 226 230 242 250 246 274 301 315 326 339 347 359 6 9 11 8 6 2 2 3 2 3 358
254 252 245 243 242 243 241 243 245 248 254 259 258 258 250 246 240 233 234 235 231 226 229 243 242 249 277 302 308 326 340 354 357 5 6 6 4 1 359 357 359 358 357
247 250 250 248 244 241 242 243 242 240 243 248 254 252 244 241 233 231 234 234 230 229 217 231 237 246 264 283 295 316 332 344 355 359 1 3 2 360 358 354 352 352 353
239 242 251 252 249 241 240 239 238 239 240 240 254 248 241 235 231 231 230 227 222 219 219 227 233 246 269 284 302 314 323 335 344 346 352 357 356 356 352 351 350 349 348
242 243 247 250 253 244 239 239 241 238 237 242 249 242 234 230 228 229 227 223 217 215 221 228 233 254 273 281 299 303 308 321 331 333 345 348 350 350 347 349 347 345 343
249 248 248 251 253 250 244 237 239 248 244 241 255 241 231 229 228 228 224 216 213 212 219 231 248 275 273 278 290 300 305 310 317 327 331 337 345 343 343 344 343 342 340
253 250 250 253 254 252 249 241 242 242 239 241 247 233 229 229 231 228 221 215 210 210 215 227 254 272 271 275 286 298 299 302 301 319 318 333 339 337 339 341 339 338 337
259 258 254 252 250 250 248 239 245 240 237 243 232 228 227 227 228 227 223 216 211 212 217 231 260 263 269 277 287 290 300 299 302 304 316 323 328 334 329 335 336 335 337
268 265 261 260 255 246 245 251 238 233 236 243 233 226 225 225 226 224 219 216 216 216 233 242 253 258 262 271 280 289 300 305 308 314 317 326 326 328 326 333 337 335 337
272 270 265 262 252 251 246 243 230 236 236 237 230 229 230 229 227 224 219 217 216 231 238 262 263 260 259 263 272 281 290 299 308 312 314 323 322 330 331 331 331 335 339
275 275 269 264 258 253 246 242 236 230 236 230 230 230 231 232 230 225 219 217 223 229 240 267 271 262 261 261 268 274 281 292 299 302 303 310 321 328 328 324 324 333 339
276 272 271 266 261 254 247 240 235 236 234 228 231 231 233 233 229 225 219 218 228 235 253 284 272 264 265 263 265 270 279 286 297 303 306 304 314 321 324 325 318 332 333
274 269 265 261 262 258 251 238 238 236 231 226 228 230 230 231 229 224 220 225 228 244 263 272 267 265 266 263 266 272 275 284 289 294 300 297 307 318 322 316 320 322 327
Wind_Speed_850mb
13 11 9 7 5 5 4 4 4 4 6 6 8 9 11 13 14 18 18 18 16 17 20 20 22 23 27 23 21 30 36 39 42 44 45 46 46 47 48 48 47 50 51
14 13 11 8 7 7 7 7 4 2 3 4 6 9 11 13 14 17 16 16 16 18 20 20 20 20 21 28 31 34 38 42 43 43 45 45 45 45 48 52 52 54 54
16 15 14 11 9 9 9 9 8 6 3 2 8 11 13 14 13 7 12 15 16 15 15 17 20 22 28 29 32 35 39 42 43 43 42 45 49 51 53 54 54 55 57
22 20 19 16 14 14 13 13 9 4 3 4 4 7 15 19 14 6 6 9 18 15 17 19 20 23 25 29 31 37 41 42 42 44 48 52 53 54 55 56 57 59 60
27 24 23 21 19 19 18 13 8 7 6 6 9 16 14 17 9 8 10 6 4 11 16 18 19 19 23 25 32 36 38 40 44 49 52 53 52 53 53 55 57 60 63
33 30 23 22 25 26 23 18 15 11 8 9 13 16 16 13 10 10 13 5 7 11 16 17 18 17 19 25 30 31 35 41 46 51 51 50 48 49 52 55 60 61 61
37 31 22 22 22 25 26 21 22 17 15 14 11 9 14 15 9 10 15 13 7 13 14 12 14 15 19 24 27 32 39 45 46 48 48 50 49 49 52 55 56 56 60
40 35 30 30 29 24 30 30 23 21 23 20 17 14 11 12 12 15 19 16 15 16 14 11 13 15 20 26 31 36 40 43 44 45 46 48 49 49 52 53 53 59 60
46 41 38 36 34 35 32 30 29 32 30 27 24 20 14 17 24 21 24 21 18 20 15 11 11 14 23 27 31 35 41 42 42 43 46 47 50 51 50 50 55 56 61
51 47 43 45 43 44 45 38 42 40 39 37 36 30 29 28 24 19 25 25 23 22 20 15 13 17 24 27 31 36 37 39 41 43 45 48 51 52 47 51 52 57 54
54 53 47 42 48 47 47 47 50 46 43 40 44 38 38 39 41 33 26 27 26 24 20 16 13 15 21 24 28 33 35 38 41 43 46 48 51 53 50 47 51 50 56
61 61 56 53 49 43 45 48 48 48 45 47 47 46 42 43 43 46 42 30 28 26 22 19 13 14 20 25 28 31 30 35 38 38 43 46 49 52 49 46 46 47 51
66 68 64 61 56 53 49 44 47 50 55 57 52 51 47 50 43 40 41 40 31 30 26 20 14 13 16 19 23 26 25 30 33 35 40 45 47 50 47 41 40 45 48
76 68 67 67 67 62 54 56 50 49 53 55 53 53 52 52 47 43 41 38 32 31 29 26 15 13 15 16 18 20 21 26 27 31 36 40 43 45 44 37 39 42 48
82 74 70 73 77 73 69 67 62 56 52 53 56 54 53 53 50 46 43 38 36 28 32 28 21 14 15 15 16 15 16 20 21 27 31 35 40 42 43 43 38 43 45
80 77 73 71 77 82 78 75 69 66 61 54 55 55 56 54 51 48 43 38 33 30 25 27 24 18 14 14 14 14 15 16 22 23 27 32 36 40 43 45 47 49 46
77 80 80 73 71 84 86 85 74 74 63 57 57 56 57 56 53 48 41 36 32 30 27 27 23 16 14 14 14 15 16 17 20 20 24 30 34 37 40 44 47 47 48
80 80 80 79 69 73 88 89 79 80 63 64 60 60 60 59 55 47 39 34 32 29 25 23 18 11 14 13 14 14 16 17 17 19 21 26 31 35 39 42 46 47 49
82 79 82 80 73 72 83 89 84 74 66 67 60 66 63 61 55 46 42 37 33 31 24 19 13 12 15 14 14 14 16 17 19 18 19 25 28 33 37 40 44 47 51
70 75 77 76 77 76 74 93 76 75 72 66 63 68 64 58 51 46 41 39 36 31 23 19 12 17 19 17 16 15 15 18 20 20 19 24 29 31 35 39 43 47 50
66 69 71 76 76 77 76 93 81 76 78 64 66 70 63 54 48 43 40 40 36 30 24 21 19 21 24 23 21 20 20 19 20 19 17 21 25 29 33 34 38 46 47
65 69 73 76 75 77 76 79 82 81 73 64 69 70 62 56 50 47 44 42 36 29 26 21 25 26 28 25 26 25 25 26 21 24 26 21 27 28 33 35 39 43 42
59 63 66 65 66 72 71 84 80 84 72 67 66 63 61 57 52 50 50 45 37 30 21 26 33 32 33 28 26 27 28 29 29 27 35 29 27 26 31 37 41 37 44
50 50 51 54 62 64 73 73 83 74 70 62 65 62 58 55 56 56 54 48 41 31 23 30 37 40 36 34 29 30 29 29 32 29 31 34 32 29 30 36 34 31 42
42 40 45 48 58 62 73 75 77 73 63 61 63 62 58 58 56 58 55 46 40 31 28 34 43 48 43 35 33 33 27 32 35 32 30 33 31 43 40 30 23 38 41
40 42 44 47 55 66 70 73 73 67 65 69 69 68 66 61 59 58 55 49 42 31 35 35 49 51 45 37 36 37 33 35 34 36 21 29 37 37 27 22 32 41 44
Wind_Direction_850mb
170 170 158 163 136 150 155 148 136 92 82 79 57 29 11 8 4 345 350 3 13 13 11 12 19 31 52 33 14 0 359 356 357 357 355 353 351 348 347 348 352 351 353
190 192 188 188 191 204 200 199 193 166 106 53 20 1 349 350 352 338 342 348 359 7 17 21 29 41 13 4 3 1 359 358 355 353 352 350 350 352 354 357 1 1 359
213 214 213 218 220 214 203 184 164 151 135 357 355 356 338 340 332 339 323 331 345 360 16 10 359 352 357 357 357 1 360 354 352 352 353 356 360 3 4 5 4 1 359
228 230 231 230 230 214 204 190 175 189 205 303 316 330 310 312 315 292 292 310 321 358 2 360 354 353 352 354 0 359 353 354 355 358 1 3 4 6 4 5 6 1 360
235 238 242 241 236 225 218 206 216 225 257 269 290 329 291 305 283 302 292 290 295 340 348 350 354 351 353 1 359 355 353 356 0 3 5 6 8 11 12 11 9 5 2
238 240 245 257 245 231 215 221 234 246 267 288 290 301 291 307 272 279 280 274 320 345 346 345 346 350 358 358 356 354 359 3 6 9 9 13 16 16 16 15 13 10 11
236 237 248 261 245 237 221 233 235 252 255 261 275 275 286 299 234 242 262 284 297 328 346 339 338 348 352 356 356 4 8 10 13 13 13 12 14 18 19 19 15 18 12
242 241 235 249 245 241 236 239 246 253 259 255 261 265 245 201 219 223 268 259 292 318 327 324 327 339 352 1 6 9 11 13 14 13 14 14 16 20 19 17 16 11 9
242 242 241 242 245 241 242 252 254 254 258 255 253 249 234 225 218 233 256 257 281 304 306 301 313 335 354 3 5 8 10 12 14 15 16 15 14 18 19 16 12 12 7
241 239 251 245 241 240 242 251 251 250 252 255 255 260 251 241 198 188 235 254 266 283 293 309 329 344 351 360 4 6 8 12 12 15 17 16 14 15 18 13 12 5 11
237 239 242 246 241 240 249 252 252 249 248 257 259 260 254 242 239 229 216 223 244 266 285 293 311 329 344 358 0 2 8 9 10 15 18 16 14 11 11 12 7 7 359
237 237 238 240 239 243 250 251 254 254 255 261 257 263 258 249 240 228 225 224 238 254 269 278 295 323 343 350 354 359 3 4 10 15 17 14 11 7 4 7 5 8 357
239 236 238 238 233 241 246 248 256 258 257 261 256 262 256 254 250 235 226 223 220 232 251 257 270 304 327 337 340 349 357 2 11 12 14 10 8 5 2 3 5 4 358
252 248 243 242 239 240 242 241 252 256 257 256 255 262 254 250 248 238 232 230 226 230 242 250 246 274 301 315 326 339 347 359 6 9 11 8 6 2 2 3 2 3 358
254 252 245 243 242 243 241 243 245 248 254 259 258 258 250 246 240 233 234 235 231 226 229 243 242 249 277 302 308 326 340 354 357 5 6 6 4 1 359 357 359 358 357
247 250 250 248 244 241 242 243 242 240 243 248 254 252 244 241 233 231 234 234 230 229 217 231 237 246 264 283 295 316 332 344 355 359 1 3 2 360 358 354 352 352 353
239 242 251 252 249 241 240 239 238 239 240 240 254 248 241 235 231 231 230 227 222 219 219 227 233 246 269 284 302 314 323 335 344 346 352 357 356 356 352 351 350 349 348
242 243 247 250 253 244 239 239 241 238 237 242 249 242 234 230 228 229 227 223 217 215 221 228 233 254 273 281 299 303 308 321 331 333 345 348 350 350 347 349 347 345 343
249 248 248 251 253 250 244 237 239 248 244 241 255 241 231 229 228 228 224 216 213 212 219 231 248 275 273 278 290 300 305 310 317 327 331 337 345 343 343 344 343 342 340
253 250 250 253 254 252 249 241 242 242 239 241 247 233 229 229 231 228 221 215 210 210 215 227 254 272 271 275 286 298 299 302 301 319 318 333 339 337 339 341 339 338 337
259 258 254 252 250 250 248 239 245 240 237 243 232 228 227 227 228 227 223 216 211 212 217 231 260 263 269 277 287 290 300 299 302 304 316 323 328 334 329 335 336 335 337
268 265 261 260 255 246 245 251 238 233 236 243 233 226 225 225 226 224 219 216 216 216 233 242 253 258 262 271 280 289 300 305 308 314 317 326 326 328 326 333 337 335 337
272 270 265 262 252 251 246 243 230 236 236 237 230 229 230 229 227 224 219 217 216 231 238 262 263 260 259 263 272 281 290 299 308 312 314 323 322 330 331 331 331 335 339
275 275 269 264 258 253 246 242 236 230 236 230 230 230 231 232 230 225 219 217 223 229 240 267 271 262 261 261 268 274 281 292 299 302 303 310 321 328 328 324 324 333 339
276 272 271 266 261 254 247 240 235 236 234 228 231 231 233 233 229 225 219 218 228 235 253 284 272 264 265 263 265 270 279 286 297 303 306 304 314 321 324 325 318 332 333
274 269 265 261 262 258 251 238 238 236 231 226 228 230 230 231 229 224 220 225 228 244 263 272 267 265 266 263 266 272 275 284 289 294 300 297 307 318 322 316 320 322 327